Temp
-7 -7 -7 -6 -6 -6 -7 -8 -8 -7 -7 -6 -6 -6 -5 -5 -6 -6 -6 -6 -6 -5 -6 -6 -7 -8 -7 -8 -7 -7 -8 -7 -7 -8 -8 -8 -7 -6 -6 -6 -5 -5 -5 -5 -5 -5 -5 -5 -5
-7 -7 -6 -7 -6 -6 -6 -6 -8 -7 -7 -7 -7 -6 -6 -6 -6 -6 -7 -7 -6 -6 -6 -6 -7 -8 -8 -8 -9 -8 -9 -9 -9 -9 -8 -7 -7 -6 -6 -6 -6 -6 -5 -5 -5 -6 -5 -6 -5
-7 -7 -6 -7 -6 -6 -7 -7 -7 -8 -8 -8 -7 -7 -6 -6 -6 -6 -6 -7 -7 -7 -7 -7 -8 -8 -9 -9 -8 -9 -9 -10 -9 -8 -8 -8 -6 -7 -6 -6 -6 -6 -5 -6 -5 -5 -6 -5 -5
-7 -7 -7 -7 -7 -7 -7 -6 -7 -8 -8 -8 -7 -7 -7 -7 -6 -6 -6 -7 -7 -7 -7 -7 -8 -8 -9 -9 -9 -9 -9 -9 -9 -10 -9 -9 -7 -7 -7 -6 -6 -6 -6 -6 -6 -5 -6 -6 -6
-7 -7 -7 -7 -7 -6 -7 -7 -6 -7 -7 -7 -8 -8 -7 -7 -7 -6 -6 -7 -7 -7 -8 -8 -8 -8 -9 -9 -9 -9 -9 -9 -9 -10 -9 -8 -7 -7 -7 -7 -6 -6 -6 -6 -6 -6 -6 -6 -6
-6 -6 -6 -7 -6 -7 -6 -7 -7 -7 -6 -7 -7 -8 -8 -8 -7 -7 -7 -7 -7 -7 -7 -8 -8 -8 -8 -9 -9 -9 -9 -9 -9 -9 -8 -7 -7 -7 -7 -7 -6 -6 -6 -6 -6 -6 -6 -6 -6
-6 -6 -6 -6 -6 -7 -6 -6 -7 -7 -7 -8 -8 -8 -8 -8 -7 -7 -7 -7 -7 -7 -7 -7 -8 -8 -8 -8 -9 -9 -9 -9 -9 -8 -8 -7 -7 -7 -7 -7 -6 -6 -6 -6 -6 -6 -6 -6 -6
-5 -6 -6 -7 -7 -6 -6 -7 -7 -8 -7 -8 -8 -8 -8 -8 -8 -7 -7 -7 -7 -7 -7 -7 -8 -8 -8 -8 -8 -9 -9 -9 -9 -8 -8 -8 -8 -8 -7 -7 -7 -7 -6 -6 -6 -6 -6 -6 -6
-5 -5 -5 -6 -6 -7 -8 -7 -7 -7 -7 -7 -8 -8 -7 -9 -8 -7 -7 -7 -7 -7 -7 -7 -7 -7 -7 -7 -8 -8 -8 -8 -8 -8 -8 -8 -8 -8 -8 -7 -7 -7 -6 -6 -6 -6 -6 -6 -6
-4 -5 -4 -5 -4 -5 -6 -7 -5 -6 -7 -7 -7 -7 -7 -8 -9 -8 -7 -7 -7 -7 -7 -7 -7 -7 -7 -7 -7 -8 -8 -8 -8 -8 -8 -8 -8 -8 -8 -7 -7 -7 -7 -6 -6 -6 -6 -6 -6
-5 -4 -5 -5 -5 -5 -6 -8 -6 -7 -7 -7 -8 -7 -6 -8 -9 -9 -8 -8 -7 -7 -7 -7 -7 -7 -7 -7 -7 -8 -8 -8 -8 -8 -7 -7 -7 -8 -8 -7 -7 -7 -7 -7 -7 -6 -6 -6 -6
-5 -4 -5 -5 -5 -5 -5 -6 -7 -6 -8 -8 -8 -7 -8 -7 -8 -9 -8 -7 -8 -7 -7 -7 -7 -7 -7 -8 -7 -7 -8 -8 -8 -8 -8 -8 -7 -7 -7 -7 -7 -7 -7 -7 -6 -6 -6 -6 -6
-4 -5 -5 -5 -5 -4 -4 -5 -7 -7 -7 -7 -8 -9 -9 -9 -8 -9 -8 -8 -8 -7 -7 -7 -7 -7 -7 -7 -7 -7 -7 -8 -8 -7 -7 -7 -7 -7 -7 -7 -7 -7 -7 -7 -7 -7 -6 -7 -6
-5 -5 -6 -5 -5 -4 -4 -5 -7 -7 -8 -7 -7 -8 -9 -8 -8 -8 -9 -8 -8 -8 -8 -7 -8 -7 -7 -7 -7 -7 -7 -7 -8 -7 -7 -7 -7 -7 -7 -7 -7 -7 -7 -7 -6 -6 -6 -6 -7
-5 -5 -5 -5 -5 -5 -5 -6 -8 -8 -8 -6 -6 -8 -8 -9 -9 -8 -9 -9 -8 -8 -8 -8 -8 -8 -8 -7 -7 -7 -7 -7 -8 -7 -7 -7 -7 -7 -7 -7 -8 -7 -7 -7 -6 -6 -6 -6 -6
-5 -5 -5 -5 -5 -5 -5 -6 -6 -8 -8 -8 -7 -8 -8 -8 -8 -8 -9 -8 -9 -9 -8 -8 -8 -8 -9 -8 -7 -7 -7 -7 -7 -7 -8 -7 -7 -7 -7 -7 -7 -7 -7 -7 -7 -6 -6 -7 -6
-5 -5 -5 -5 -6 -6 -5 -6 -7 -7 -8 -8 -7 -7 -8 -8 -8 -8 -9 -8 -9 -9 -8 -8 -8 -8 -8 -8 -8 -7 -7 -8 -8 -8 -7 -7 -7 -7 -7 -7 -6 -6 -6 -7 -7 -7 -7 -6 -6
-5 -5 -5 -6 -6 -6 -6 -6 -7 -8 -8 -8 -8 -8 -8 -8 -8 -9 -8 -9 -8 -9 -9 -8 -8 -8 -8 -8 -8 -7 -7 -7 -8 -8 -7 -8 -8 -7 -7 -7 -7 -7 -6 -6 -7 -6 -6 -6 -6
-5 -5 -5 -5 -6 -5 -6 -6 -6 -6 -8 -8 -8 -9 -8 -7 -8 -8 -8 -9 -9 -9 -9 -9 -8 -8 -8 -8 -9 -8 -7 -7 -7 -7 -7 -8 -8 -8 -8 -8 -7 -7 -6 -7 -7 -7 -7 -6 -6
-5 -5 -5 -5 -6 -6 -6 -6 -6 -7 -7 -8 -8 -8 -8 -8 -8 -8 -9 -9 -9 -9 -9 -9 -9 -8 -9 -9 -9 -9 -8 -8 -7 -7 -8 -8 -8 -8 -8 -8 -8 -7 -7 -7 -7 -7 -6 -6 -6
-5 -5 -5 -6 -6 -7 -7 -7 -7 -7 -8 -7 -8 -8 -8 -8 -9 -9 -9 -9 -9 -9 -9 -9 -9 -9 -9 -9 -9 -8 -9 -9 -8 -7 -7 -8 -8 -8 -8 -8 -8 -8 -7 -7 -7 -7 -7 -6 -6
-6 -5 -6 -6 -7 -7 -8 -8 -8 -8 -9 -9 -8 -8 -9 -9 -10 -10 -9 -9 -9 -9 -9 -9 -9 -9 -9 -9 -9 -8 -9 -8 -9 -8 -7 -7 -7 -7 -7 -7 -7 -8 -7 -7 -6 -6 -7 -7 -7
-6 -6 -7 -7 -7 -7 -8 -8 -8 -9 -10 -9 -9 -9 -9 -9 -10 -10 -10 -9 -9 -9 -9 -9 -9 -9 -9 -9 -9 -8 -8 -8 -8 -8 -8 -8 -8 -8 -8 -7 -7 -7 -7 -7 -6 -7 -6 -7 -7
-6 -6 -7 -7 -7 -8 -8 -9 -9 -9 -10 -10 -10 -10 -9 -9 -10 -9 -9 -10 -10 -10 -10 -9 -9 -9 -9 -9 -9 -8 -9 -9 -8 -8 -8 -8 -8 -8 -7 -7 -7 -7 -7 -7 -7 -7 -6 -6 -6
-6 -7 -7 -8 -8 -8 -9 -9 -9 -10 -10 -10 -10 -11 -10 -10 -10 -10 -10 -9 -10 -9 -10 -9 -9 -9 -9 -9 -8 -9 -9 -9 -9 -9 -8 -9 -8 -8 -8 -7 -7 -7 -7 -7 -7 -6 -6 -7 -6
-7 -7 -8 -8 -8 -8 -9 -9 -10 -10 -11 -11 -11 -11 -10 -11 -10 -10 -10 -11 -11 -10 -10 -10 -9 -9 -9 -9 -8 -8 -9 -9 -9 -9 -9 -9 -9 -8 -8 -8 -8 -8 -7 -7 -7 -6 -6 -6 -6
-7 -8 -8 -8 -8 -9 -9 -9 -10 -11 -11 -11 -11 -11 -11 -11 -11 -11 -11 -11 -12 -11 -10 -10 -9 -9 -9 -9 -8 -9 -9 -9 -9 -9 -9 -9 -9 -9 -9 -8 -8 -8 -7 -7 -7 -6 -6 -7 -7
-9 -8 -8 -8 -9 -9 -9 -10 -10 -10 -11 -11 -11 -11 -11 -11 -11 -11 -12 -12 -11 -11 -10 -10 -10 -10 -9 -9 -9 -9 -9 -9 -9 -9 -9 -9 -9 -9 -9 -9 -8 -9 -8 -7 -7 -7 -6 -7 -7
-10 -10 -9 -9 -9 -10 -10 -10 -11 -11 -10 -11 -11 -12 -11 -11 -11 -11 -11 -11 -10 -9 -10 -10 -9 -9 -9 -9 -9 -9 -8 -9 -8 -9 -9 -9 -9 -9 -9 -9 -9 -8 -8 -7 -7 -7 -7 -7 -7
-10 -10 -10 -10 -10 -10 -11 -10 -11 -11 -11 -11 -11 -12 -11 -11 -11 -11 -10 -10 -10 -9 -9 -8 -9 -9 -9 -9 -9 -9 -9 -9 -9 -8 -9 -9 -9 -9 -9 -9 -9 -9 -8 -8 -7 -7 -7 -8 -7
Height
5891 5889 5885 5885 5886 5882 5880 5881 5883 5881 5879 5877 5877 5875 5871 5868 5865 5864 5860 5858 5858 5858 5857 5855 5854 5852 5850 5851 5853 5855 5859 5864 5867 5869 5874 5878 5881 5884 5888 5890 5892 5893 5895 5898 5900 5902 5904 5904 5905
5893 5891 5887 5887 5889 5886 5883 5884 5884 5885 5882 5877 5878 5878 5876 5870 5868 5864 5861 5859 5859 5856 5855 5855 5855 5854 5854 5854 5854 5855 5859 5864 5869 5874 5878 5881 5884 5885 5889 5891 5892 5893 5896 5898 5901 5904 5905 5906 5907
5894 5892 5891 5886 5889 5888 5886 5886 5883 5885 5883 5880 5882 5881 5879 5876 5871 5867 5863 5860 5860 5859 5856 5856 5855 5856 5857 5858 5859 5861 5863 5867 5873 5876 5878 5882 5884 5887 5889 5892 5893 5896 5897 5899 5901 5903 5905 5907 5909
5895 5892 5890 5890 5890 5888 5887 5885 5884 5876 5885 5886 5886 5886 5883 5879 5874 5869 5865 5862 5861 5861 5860 5859 5859 5859 5860 5862 5864 5864 5867 5870 5874 5877 5880 5884 5886 5889 5891 5893 5895 5897 5899 5901 5902 5904 5906 5908 5911
5895 5893 5890 5888 5886 5887 5887 5884 5883 5883 5880 5887 5887 5887 5885 5883 5879 5872 5868 5865 5863 5863 5863 5861 5861 5862 5863 5864 5866 5868 5871 5873 5877 5879 5883 5886 5889 5890 5892 5894 5896 5898 5900 5902 5904 5906 5907 5909 5912
5895 5894 5892 5890 5885 5886 5883 5885 5886 5886 5883 5885 5888 5888 5886 5885 5882 5876 5872 5869 5866 5865 5864 5863 5862 5864 5865 5866 5868 5870 5872 5875 5878 5882 5884 5887 5889 5891 5893 5895 5897 5899 5901 5903 5904 5906 5908 5911 5912
5896 5894 5893 5890 5889 5888 5887 5888 5887 5888 5884 5886 5887 5886 5886 5886 5883 5879 5875 5872 5869 5865 5863 5863 5862 5864 5866 5868 5869 5871 5873 5876 5879 5883 5885 5888 5890 5892 5893 5895 5897 5899 5901 5903 5905 5906 5909 5910 5913
5896 5896 5894 5893 5890 5890 5887 5888 5886 5885 5882 5885 5886 5887 5881 5885 5884 5881 5878 5874 5870 5865 5862 5862 5862 5864 5866 5868 5870 5872 5874 5877 5880 5883 5886 5888 5891 5893 5894 5895 5898 5900 5902 5903 5905 5907 5909 5910 5914
5897 5896 5894 5893 5891 5888 5885 5886 5889 5888 5889 5889 5889 5886 5884 5882 5886 5885 5880 5877 5872 5866 5861 5860 5863 5864 5867 5869 5871 5873 5876 5878 5881 5883 5886 5888 5891 5893 5895 5897 5899 5901 5902 5904 5906 5906 5909 5911 5913
5898 5897 5895 5894 5891 5889 5886 5884 5886 5887 5888 5887 5889 5888 5884 5883 5887 5887 5883 5880 5875 5870 5865 5863 5864 5865 5868 5871 5872 5873 5877 5878 5880 5882 5885 5888 5891 5893 5895 5897 5898 5900 5902 5904 5906 5908 5910 5911 5912
5898 5896 5895 5896 5893 5890 5887 5885 5884 5884 5888 5887 5887 5882 5882 5886 5888 5889 5886 5883 5880 5875 5873 5871 5869 5868 5869 5870 5872 5873 5875 5878 5881 5883 5884 5887 5889 5892 5895 5896 5898 5899 5901 5903 5906 5908 5909 5911 5913
5895 5895 5895 5894 5892 5891 5889 5887 5886 5884 5886 5885 5886 5885 5885 5882 5889 5889 5888 5886 5883 5881 5878 5876 5874 5873 5872 5873 5872 5873 5874 5876 5879 5882 5884 5886 5888 5891 5894 5895 5897 5898 5899 5902 5904 5908 5908 5911 5913
5890 5889 5891 5890 5889 5889 5887 5886 5885 5885 5883 5883 5882 5885 5885 5888 5888 5888 5889 5888 5886 5884 5883 5881 5878 5878 5877 5875 5875 5874 5875 5876 5877 5879 5881 5884 5886 5889 5891 5893 5895 5897 5898 5900 5903 5905 5907 5910 5912
5892 5891 5886 5884 5887 5885 5884 5882 5881 5881 5878 5879 5880 5880 5882 5885 5887 5884 5885 5888 5888 5886 5884 5884 5882 5880 5881 5879 5878 5876 5875 5875 5876 5877 5878 5880 5884 5887 5889 5890 5893 5894 5897 5899 5901 5903 5905 5907 5910
5891 5890 5886 5883 5881 5881 5880 5880 5876 5876 5875 5875 5876 5876 5877 5882 5887 5885 5883 5885 5887 5887 5886 5885 5884 5882 5882 5882 5879 5877 5876 5874 5874 5873 5875 5878 5880 5883 5886 5888 5890 5892 5894 5896 5898 5901 5903 5905 5907
5888 5887 5883 5880 5879 5880 5880 5879 5876 5873 5871 5871 5872 5873 5875 5879 5884 5885 5884 5880 5884 5886 5886 5886 5885 5884 5882 5882 5880 5879 5877 5876 5875 5874 5875 5876 5878 5880 5883 5886 5888 5889 5891 5894 5895 5897 5899 5901 5904
5885 5883 5881 5878 5876 5874 5877 5877 5874 5872 5869 5868 5869 5870 5873 5876 5879 5882 5882 5882 5881 5884 5885 5885 5884 5884 5884 5883 5881 5880 5878 5877 5876 5875 5876 5873 5875 5879 5881 5882 5884 5886 5888 5890 5892 5893 5895 5898 5900
5881 5881 5879 5876 5875 5874 5873 5873 5874 5870 5867 5865 5865 5867 5869 5871 5872 5875 5877 5880 5878 5882 5883 5884 5884 5883 5883 5883 5882 5881 5880 5878 5877 5877 5877 5875 5876 5877 5878 5879 5881 5882 5883 5885 5887 5890 5891 5893 5895
5878 5878 5878 5874 5874 5873 5871 5870 5866 5865 5862 5862 5862 5863 5866 5867 5867 5861 5871 5873 5876 5880 5882 5883 5884 5883 5883 5883 5882 5881 5880 5880 5879 5877 5877 5876 5876 5876 5876 5876 5877 5878 5878 5880 5882 5884 5886 5889 5891
5874 5875 5873 5871 5867 5865 5864 5864 5863 5861 5859 5857 5856 5858 5860 5864 5864 5863 5865 5868 5872 5874 5878 5880 5882 5883 5882 5882 5882 5882 5881 5881 5880 5879 5877 5877 5878 5877 5875 5876 5877 5876 5877 5877 5879 5880 5882 5884 5886
5871 5868 5865 5864 5864 5861 5860 5858 5856 5858 5856 5850 5851 5852 5853 5856 5858 5860 5860 5863 5866 5868 5872 5874 5879 5880 5880 5879 5881 5884 5883 5881 5880 5880 5880 5879 5878 5877 5876 5876 5875 5874 5874 5874 5876 5877 5878 5880 5882
5866 5862 5860 5857 5857 5861 5855 5855 5852 5851 5852 5846 5846 5847 5847 5847 5849 5849 5851 5855 5858 5862 5864 5867 5869 5874 5875 5875 5877 5881 5883 5882 5880 5879 5879 5878 5877 5876 5875 5874 5872 5872 5870 5869 5870 5871 5872 5874 5876
5861 5858 5857 5857 5854 5854 5851 5848 5846 5846 5844 5842 5842 5841 5840 5839 5837 5838 5842 5844 5848 5851 5854 5857 5859 5864 5868 5869 5869 5873 5878 5880 5881 5879 5877 5876 5875 5874 5873 5871 5869 5867 5865 5865 5865 5866 5867 5868 5869
5854 5852 5850 5848 5849 5849 5847 5843 5842 5840 5839 5838 5836 5834 5835 5834 5833 5830 5830 5834 5838 5840 5844 5846 5849 5854 5858 5860 5860 5865 5870 5874 5877 5877 5876 5874 5873 5872 5870 5867 5864 5861 5860 5861 5861 5861 5862 5864 5866
5850 5846 5843 5841 5840 5842 5840 5837 5835 5833 5832 5831 5831 5828 5827 5825 5825 5823 5820 5817 5822 5830 5832 5837 5841 5844 5850 5851 5850 5850 5857 5861 5865 5870 5871 5871 5870 5869 5867 5865 5862 5860 5858 5857 5856 5851 5854 5858 5861
5844 5841 5837 5832 5831 5831 5833 5831 5829 5826 5824 5823 5822 5820 5819 5817 5813 5813 5808 5803 5807 5812 5819 5825 5829 5833 5841 5843 5844 5842 5844 5851 5856 5860 5863 5863 5864 5864 5863 5861 5860 5858 5855 5853 5851 5847 5848 5853 5856
5839 5834 5832 5829 5828 5825 5825 5824 5823 5820 5817 5817 5815 5813 5813 5811 5809 5804 5796 5791 5795 5799 5806 5811 5818 5823 5830 5834 5837 5837 5837 5841 5846 5852 5854 5858 5857 5858 5859 5858 5856 5855 5853 5853 5851 5848 5848 5851 5853
5832 5827 5827 5826 5822 5819 5817 5816 5816 5815 5813 5811 5809 5807 5806 5803 5804 5801 5794 5787 5784 5788 5794 5802 5808 5814 5820 5825 5829 5833 5832 5835 5839 5841 5848 5852 5854 5854 5854 5855 5854 5852 5851 5850 5849 5848 5848 5849 5851
5830 5820 5818 5820 5817 5811 5808 5806 5806 5805 5805 5804 5801 5799 5799 5797 5796 5795 5792 5787 5781 5781 5785 5792 5799 5805 5810 5815 5819 5826 5828 5831 5834 5839 5840 5842 5845 5848 5847 5847 5849 5849 5849 5849 5848 5846 5846 5846 5847
5819 5817 5815 5812 5812 5807 5803 5799 5797 5797 5796 5795 5792 5791 5790 5790 5789 5787 5785 5784 5784 5781 5781 5785 5791 5798 5801 5806 5810 5816 5821 5821 5823 5830 5833 5833 5835 5836 5839 5839 5842 5843 5843 5844 5845 5843 5843 5843 5844
Wind_Speed
3 4 15 17 19 26 33 34 36 32 30 30 32 33 32 26 22 17 13 7 4 4 8 9 12 14 17 16 14 20 22 28 25 20 19 23 21 19 19 18 16 17 16 15 16 15 16 16 17
7 12 3 13 15 21 28 31 31 32 34 33 31 29 29 29 27 20 16 11 6 4 7 7 13 18 18 17 12 29 25 23 23 22 21 21 21 21 18 17 17 17 17 18 19 17 16 16 17
11 18 11 8 8 11 24 27 35 32 34 35 30 30 28 27 25 25 20 12 7 5 5 8 10 13 15 14 16 17 29 31 27 24 25 20 20 21 20 19 18 18 16 18 19 17 16 16 16
11 15 19 12 7 3 13 18 19 24 26 25 25 27 31 29 26 26 22 12 8 6 4 5 10 12 13 13 15 15 14 19 25 20 21 21 19 19 17 17 16 15 16 17 18 17 16 16 16
8 13 17 19 3 0 8 14 18 15 20 16 33 24 28 31 27 26 23 20 6 7 4 4 6 9 12 13 13 13 15 15 20 22 20 19 19 18 17 16 15 14 15 17 17 16 15 15 15
9 11 16 27 9 6 6 13 14 9 11 23 24 28 29 28 29 26 21 19 17 5 4 1 5 9 11 13 13 14 14 18 17 16 16 15 16 15 16 15 15 15 15 16 17 16 16 14 14
9 12 16 16 7 7 11 9 11 9 16 23 24 23 28 28 33 28 24 18 17 16 3 5 5 8 12 14 15 14 14 14 17 15 15 14 12 12 13 14 14 14 16 16 16 17 16 13 12
11 10 11 11 17 6 7 10 8 14 13 22 24 19 20 26 31 30 24 23 17 19 15 9 8 8 10 14 14 15 16 16 19 17 14 13 12 11 11 12 14 13 14 16 15 14 14 14 12
12 11 6 7 7 7 5 12 8 10 13 16 19 20 24 24 27 29 25 23 18 23 20 5 11 10 9 11 15 16 16 17 18 17 17 13 12 11 11 11 11 13 13 13 14 14 14 13 12
13 13 14 9 5 2 4 7 5 11 12 11 12 13 15 16 18 24 24 22 20 23 25 10 10 11 9 6 9 13 14 13 15 16 16 15 15 14 13 13 10 10 11 11 11 12 13 13 12
12 14 14 12 9 7 5 8 11 11 6 6 7 18 9 13 14 19 19 19 20 22 24 18 12 10 10 8 8 9 12 13 14 15 16 15 15 16 15 14 15 12 12 12 11 12 13 13 12
15 16 15 11 7 3 5 6 11 14 10 12 6 7 7 13 13 12 14 18 16 21 21 21 17 13 9 8 8 7 8 11 15 16 15 16 16 17 17 17 17 14 14 13 13 12 11 12 12
19 21 17 13 10 9 7 5 9 13 15 14 10 6 7 17 5 5 10 13 15 15 19 21 20 17 15 11 7 7 6 8 11 15 17 17 18 18 19 17 17 16 14 14 13 13 14 13 13
15 13 18 17 13 12 13 5 5 10 18 12 9 10 7 14 19 3 4 10 13 12 12 14 17 19 15 11 7 5 5 6 13 15 18 20 19 19 18 18 20 18 17 16 16 15 14 15 14
14 14 16 18 16 16 16 6 16 18 17 16 11 7 14 14 19 22 3 3 11 11 11 11 14 16 17 16 7 6 3 7 4 9 18 20 21 21 20 20 20 19 19 18 18 17 17 16 15
18 16 18 20 17 13 10 14 15 17 18 17 15 13 6 6 12 18 23 19 3 11 11 11 9 12 15 16 14 7 5 2 2 6 13 16 19 19 18 21 22 21 22 21 20 20 20 19 18
19 18 17 16 18 17 13 11 18 20 22 21 18 15 10 6 9 11 15 16 8 11 9 9 10 9 12 14 15 11 9 5 3 4 3 2 17 16 17 20 21 22 22 23 23 23 22 20 21
20 16 15 15 15 15 16 14 14 27 28 26 22 20 18 16 14 9 9 12 19 7 14 9 8 9 7 12 13 14 11 8 8 7 2 4 6 11 14 16 18 21 21 21 22 23 25 24 24
19 17 14 16 15 13 12 8 12 15 29 31 27 24 25 22 28 11 18 15 9 9 13 13 10 8 7 9 10 13 10 9 7 7 5 1 5 8 8 9 11 13 14 16 21 23 25 26 26
20 18 18 17 17 19 19 12 15 16 18 28 35 30 26 29 34 25 25 21 18 16 14 13 15 12 10 8 11 9 11 8 6 6 6 5 4 8 9 9 10 12 13 16 19 22 24 26 28
20 22 22 19 14 16 19 17 15 13 14 22 31 38 34 29 25 25 31 31 24 22 18 16 18 15 14 11 10 11 10 11 8 4 4 5 5 4 7 9 11 15 17 18 19 21 24 24 26
19 22 22 21 20 15 20 16 21 21 14 18 24 42 39 24 25 32 34 34 26 26 25 22 23 21 18 16 13 11 13 10 9 8 5 3 5 5 5 9 11 13 17 19 20 20 21 22 23
20 20 19 17 21 18 19 24 25 21 18 19 20 21 22 27 36 40 31 41 36 31 34 31 28 27 26 24 22 16 14 13 8 8 10 10 9 8 8 9 9 12 15 17 21 21 21 23 25
24 26 25 25 21 21 19 26 23 18 19 19 18 20 21 18 27 34 41 44 46 43 42 41 39 33 32 30 29 18 16 15 12 10 11 11 12 12 12 12 11 11 12 15 16 19 21 25 25
26 28 29 30 29 25 25 25 25 23 23 23 23 28 28 27 23 26 34 43 40 52 43 40 42 45 38 38 35 29 26 22 18 14 13 15 13 12 12 11 12 12 8 10 16 23 24 26 23
27 29 30 36 37 35 29 29 28 27 25 26 28 32 31 33 35 36 37 34 35 37 40 50 49 52 44 44 41 36 35 28 24 20 18 14 15 15 12 12 13 14 11 11 10 6 17 22 18
31 33 33 34 35 36 34 31 31 29 31 29 32 35 35 35 39 37 36 26 26 34 40 42 48 44 47 46 43 46 40 32 29 25 24 20 15 17 17 15 13 13 13 12 8 3 4 10 15
31 38 36 34 36 36 36 35 33 32 33 31 36 32 29 33 31 29 29 30 29 36 45 51 48 47 48 49 45 43 37 36 35 32 27 23 24 22 19 21 17 13 14 14 11 7 7 9 12
25 36 38 34 34 38 39 41 38 37 34 33 35 32 27 25 20 16 19 22 24 29 39 45 49 50 50 51 49 48 44 38 36 37 32 29 29 29 25 25 24 17 15 14 15 16 14 14 14
30 32 31 31 32 34 36 41 41 40 35 32 35 32 27 25 23 24 22 17 19 25 29 35 47 53 53 51 54 53 47 45 47 43 37 37 34 35 34 30 28 25 21 17 17 16 16 15 15
Wind_Direction
43 184 102 65 71 79 69 55 39 37 34 41 30 30 31 29 16 11 9 32 51 85 114 125 114 95 94 124 184 198 209 185 172 138 142 151 154 154 165 159 160 158 160 161 155 150 145 143 141
289 285 42 63 68 80 79 64 54 39 34 30 27 23 22 31 29 20 5 11 14 50 97 96 100 104 93 88 101 155 147 143 143 152 154 156 160 163 164 162 162 162 165 160 159 154 145 144 144
287 318 30 67 78 74 64 66 62 44 31 29 21 26 23 20 29 27 26 354 16 49 98 116 103 102 105 99 94 116 160 150 155 151 148 162 172 162 162 163 161 164 159 161 158 156 151 148 146
315 337 343 353 70 156 81 66 72 75 42 22 20 21 24 19 22 30 28 22 354 46 91 120 127 125 129 131 121 112 120 154 157 165 173 158 174 166 160 162 162 164 165 166 164 159 159 154 153
307 308 321 318 332 112 149 63 58 57 75 47 34 17 13 11 14 28 30 47 26 1 33 122 139 146 144 143 157 151 142 141 160 154 164 179 176 170 164 164 168 170 169 172 171 165 164 166 165
313 324 334 330 265 275 261 23 65 62 60 60 46 18 12 15 7 23 30 41 50 46 312 63 147 173 165 158 158 157 157 155 161 163 159 173 173 169 172 171 173 176 173 177 176 173 174 178 171
331 345 352 345 316 82 46 55 57 343 68 62 54 40 26 21 8 16 21 28 34 37 62 225 166 182 188 174 168 164 165 169 167 170 170 173 167 171 174 179 182 185 182 182 179 176 182 182 185
13 350 344 16 6 49 360 13 32 12 24 55 50 30 52 11 7 5 14 16 30 18 22 190 193 171 192 188 180 174 168 171 179 177 176 174 174 171 178 186 189 191 190 188 185 180 180 183 188
24 20 358 341 327 86 360 350 359 11 25 38 40 25 28 29 9 5 3 13 22 25 17 142 180 168 171 194 193 186 180 171 179 186 187 186 184 181 186 192 198 202 195 195 193 181 183 183 181
14 7 12 18 43 132 260 293 304 343 19 26 24 12 48 29 6 4 356 14 23 34 33 68 152 162 156 168 192 198 193 184 181 181 197 194 200 201 199 200 197 204 211 205 197 194 195 194 185
5 5 4 2 8 357 221 242 308 308 331 323 11 300 50 36 352 357 359 4 28 38 43 49 84 124 133 144 156 175 190 194 196 197 193 197 204 214 211 205 207 204 212 213 211 205 203 202 195
350 355 1 346 352 359 312 293 273 287 307 304 352 334 358 26 332 358 355 3 28 38 47 55 51 67 105 126 140 150 175 194 203 205 205 204 208 213 222 220 218 217 207 214 213 218 213 217 209
341 336 341 331 329 333 324 248 259 276 280 291 288 293 333 307 30 64 336 5 4 34 51 53 54 58 56 72 97 129 155 187 205 210 214 215 212 213 216 222 229 232 232 225 220 221 222 225 219
326 322 324 317 322 331 337 260 234 214 247 257 271 258 261 274 292 101 140 339 4 3 34 42 45 49 40 54 55 90 112 201 201 207 208 213 220 220 220 221 226 228 232 231 230 227 225 227 229
314 317 308 310 321 324 342 321 171 192 220 250 255 282 241 271 324 323 118 100 333 347 349 25 31 38 39 31 31 53 74 74 180 232 212 208 206 215 224 223 220 224 227 233 235 233 231 230 229
315 312 307 305 312 319 333 301 262 229 236 252 265 263 256 268 302 317 326 295 265 311 328 332 9 26 18 20 23 35 56 62 56 75 200 220 218 214 217 222 225 228 230 229 233 234 235 235 235
307 308 308 306 305 305 317 286 244 242 237 240 255 258 234 246 281 325 319 319 238 270 291 316 331 353 13 6 16 28 33 46 43 81 85 159 211 215 222 231 231 229 230 234 234 234 238 238 239
301 303 305 290 293 299 298 308 259 240 243 240 251 255 238 227 228 266 276 295 314 238 272 280 305 336 9 350 350 12 33 40 53 69 90 121 174 213 219 225 231 233 227 227 236 235 235 239 240
295 298 290 287 287 278 280 281 270 246 241 244 242 255 247 250 265 221 244 230 238 205 227 264 266 281 328 330 326 334 4 31 45 37 28 141 227 234 221 219 227 235 235 236 234 239 236 234 239
296 296 296 296 305 315 317 302 274 262 257 248 242 246 254 245 252 255 241 239 232 224 215 227 256 257 259 300 289 302 323 343 27 45 22 358 288 255 244 235 231 236 238 238 238 240 240 237 236
300 306 308 308 318 321 319 304 284 284 273 264 249 245 249 246 240 241 251 257 232 223 236 247 229 238 256 264 258 267 290 308 333 9 46 6 345 304 262 266 260 251 248 241 236 242 241 246 239
322 315 313 318 315 319 307 299 293 290 280 266 258 241 248 256 256 246 240 240 234 227 220 224 231 247 243 249 243 244 260 276 295 315 323 340 342 330 287 263 263 253 248 241 233 233 235 239 239
316 316 315 302 305 326 307 298 300 295 291 281 261 259 264 262 259 254 242 237 231 239 241 233 225 238 241 239 232 232 247 255 270 291 306 305 320 325 319 304 283 276 259 253 243 243 240 234 228
308 309 309 312 318 325 311 303 307 286 282 291 298 292 290 277 278 274 268 257 239 232 237 246 249 246 244 225 243 201 228 250 266 268 276 286 293 304 311 315 311 296 271 265 235 257 251 247 237
302 305 306 306 311 313 315 309 307 297 289 290 290 291 296 290 291 281 281 270 264 239 232 234 248 247 226 220 228 197 221 229 236 252 265 275 277 283 300 312 324 305 297 275 253 249 261 255 241
302 302 301 304 309 312 313 308 307 303 298 290 291 294 298 303 304 297 295 257 247 236 240 235 238 251 230 221 220 221 202 223 232 240 248 252 275 280 287 301 311 312 298 287 279 315 236 236 234
298 294 298 298 303 304 306 302 302 298 295 298 292 291 295 288 295 302 302 304 244 236 236 229 235 243 226 223 218 234 217 206 227 237 239 250 256 272 284 285 295 306 300 278 274 242 195 221 234
290 293 294 299 301 301 297 298 292 295 296 297 296 293 292 278 281 293 304 312 263 234 240 241 242 247 229 220 227 232 245 213 224 228 236 249 258 263 272 280 276 290 293 281 259 249 221 226 238
276 280 292 299 297 297 301 297 299 294 299 298 294 298 295 294 264 283 318 302 277 246 246 244 243 247 231 223 226 229 238 224 224 230 232 236 247 257 259 268 271 270 276 273 257 240 238 241 243
282 283 286 285 287 289 293 294 293 297 302 301 298 297 293 286 273 285 304 318 275 269 248 241 233 239 236 230 232 229 235 231 227 230 233 235 240 245 250 254 259 264 260 262 257 254 248 241 247